TimeEDT,TemperatureF,Dew PointF,Humidity,Sea Level PressureIn,VisibilityMPH,Wind Direction,Wind SpeedMPH,Gust SpeedMPH,PrecipitationIn,Events,Conditions,WindDirDegrees,DateUTC
12:53 AM,80.1,73.0,79,29.82,10.0,Calm,Calm,-,N/A,,Mostly Cloudy,0,2012-10-01 04:53:00
1:53 AM,80.1,73.9,81,29.82,10.0,Calm,Calm,-,N/A,,Scattered Clouds,0,2012-10-01 05:53:00
2:53 AM,80.1,75.0,85,29.79,10.0,SE,3.5,-,N/A,,Mostly Cloudy,140,2012-10-01 06:53:00
3:53 AM,78.8,73.4,83,29.78,10.0,Calm,Calm,-,N/A,,Scattered Clouds,0,2012-10-01 07:53:00
4:53 AM,78.1,73.9,87,29.78,10.0,ESE,3.5,-,N/A,,Mostly Cloudy,110,2012-10-01 08:53:00
5:53 AM,78.1,73.0,84,29.78,10.0,ESE,4.6,-,N/A,,Scattered Clouds,110,2012-10-01 09:53:00
6:53 AM,78.1,73.0,84,29.78,10.0,SE,4.6,-,N/A,,Mostly Cloudy,130,2012-10-01 10:53:00
7:53 AM,78.1,73.0,84,29.78,10.0,ESE,3.5,-,N/A,,Mostly Cloudy,110,2012-10-01 11:53:00
8:53 AM,80.1,73.9,81,29.79,10.0,SSE,8.1,-,N/A,,Scattered Clouds,150,2012-10-01 12:53:00
9:53 AM,82.0,73.9,76,29.79,10.0,SSE,6.9,-,N/A,,Scattered Clouds,150,2012-10-01 13:53:00
10:53 AM,82.9,73.0,72,29.81,10.0,South,9.2,-,N/A,,Scattered Clouds,180,2012-10-01 14:53:00
11:53 AM,86.0,73.9,67,29.81,10.0,SSW,12.7,-,N/A,,Scattered Clouds,200,2012-10-01 15:53:00
12:53 PM,84.0,73.9,72,29.81,10.0,South,11.5,-,N/A,,Mostly Cloudy,190,2012-10-01 16:53:00
1:53 PM,87.8,73.4,62,29.78,10.0,SSW,13.8,-,N/A,,Mostly Cloudy,210,2012-10-01 17:53:00
2:53 PM,88.0,71.1,57,29.75,10.0,SW,11.5,-,N/A,,Mostly Cloudy,220,2012-10-01 18:53:00
3:53 PM,87.1,71.1,59,29.74,10.0,SSW,10.4,-,N/A,,Scattered Clouds,210,2012-10-01 19:53:00
4:53 PM,87.1,73.0,63,29.75,10.0,South,13.8,20.7,N/A,,Scattered Clouds,180,2012-10-01 20:53:00
5:53 PM,84.9,73.0,67,29.75,10.0,South,12.7,-,N/A,,Scattered Clouds,190,2012-10-01 21:53:00
6:53 PM,82.9,73.0,72,29.76,10.0,South,12.7,-,N/A,,Scattered Clouds,180,2012-10-01 22:53:00
7:53 PM,82.0,73.0,74,29.78,10.0,SSW,10.4,-,N/A,,Mostly Cloudy,200,2012-10-01 23:53:00
8:53 PM,82.0,73.0,74,29.79,10.0,South,10.4,-,N/A,,Mostly Cloudy,190,2012-10-02 00:53:00
9:29 PM,80.6,73.4,79,29.80,10.0,West,10.4,19.6,N/A,,Mostly Cloudy,260,2012-10-02 01:29:00
9:53 PM,78.1,73.9,87,29.81,4.0,Calm,Calm,-,0.14,,Mostly Cloudy,0,2012-10-02 01:53:00
10:02 PM,78.8,75.2,89,29.81,9.0,Calm,Calm,-,N/A,,Mostly Cloudy,0,2012-10-02 02:02:00
10:53 PM,78.1,73.9,87,29.81,10.0,South,4.6,-,0.01,,Mostly Cloudy,170,2012-10-02 02:53:00
11:53 PM,79.0,75.0,88,29.81,10.0,SSE,4.6,-,0.00,,Scattered Clouds,160,2012-10-02 03:53:00